Regional Weather Roundup
Issued by NWS

Home | Current Version | Previous Version | Graphics & Text | Print | Product List | Glossary On
Versions: 1 2 3 4 5 6 7 8 9 10 11 12 13 14 15 16 17 18 19 20 21 22 23 24 25 26 27 28 29 30 31 32 33 34 35 36 37 38 39 40 41 42 43 44 45 46 47 48 49 50
000
ASUS43 KLOT 171208
RWRIL

ILLINOIS REGIONAL WEATHER ROUNDUP
NATIONAL WEATHER SERVICE CHICAGO/ROMEOVILLE IL
600 AM CST WED JAN 17 2018

NOTE: "FAIR" INDICATES FEW OR NO CLOUDS BELOW 12,000 FEET WITH NO
SIGNIFICANT WEATHER AND/OR OBSTRUCTIONS TO VISIBILITY.

* THESE STATIONS ARE NOT UNDER NWS QUALITY CONTROL. THEY ALSO MAY NOT
  REPORT WEATHER SUCH AS PRECIPITATION OR FOG.

ILZ001-002-007-009-015-016-024-171300-
NORTHWEST ILLINOIS

CITY           SKY/WX    TMP DP  RH WIND       PRES   REMARKS
MOLINE         FAIR      -1  -5  82 SW3       30.59F
6HR MIN TEMP:  -1; 6HR MAX TEMP:   4;

STERLING*      FAIR      -2  -6  83 SW6       30.58R WCI -14
SAVANNA*       FAIR      -3  -6  86 SW5       30.57F WCI -13
$$

ILZ003-004-008-010-011-017-018-171300-
NORTH CENTRAL ILLINOIS

CITY           SKY/WX    TMP DP  RH WIND       PRES   REMARKS
ROCKFORD       FAIR      -4  -8  83 S6        30.55S WCI -16
6HR MIN TEMP:  -4; 6HR MAX TEMP:   5;

FREEPORT*      FAIR      -2  -6  84 SW5       30.54F WCI -12
ROCHELLE*      FAIR      -6 -10  83 SW6       30.55S WCI -19
DE KALB*       FAIR       0  -4  85 W8        30.52S WCI -15
PERU*          FAIR      -2  -5  84 W8        30.58S WCI -16
$$

ILZ005-006-012>014-019>023-171300-
NORTHEAST ILLINOIS

CITY           SKY/WX    TMP DP  RH WIND       PRES   REMARKS
CHICAGO-OHARE  FAIR       5   1  83 W6        30.52R WCI  -6
6HR MIN TEMP:   5; 6HR MAX TEMP:  12;

CHICAGO-MIDWAY FAIR       7   3  84 W6        30.53S WCI  -3
6HR MIN TEMP:   7; 6HR MAX TEMP:  14;

AURORA         FAIR      -5  -8  87 W6        30.54S WCI -18
6HR MIN TEMP:  -5; 6HR MAX TEMP:   3;

LANSING*       FAIR       3   1  91 CALM      30.54S
JOLIET*        FAIR       0  -3  86 CALM      30.57R
WAUKEGAN       FAIR       6   0  76 W6        30.49S WCI  -4
6HR MIN TEMP:   6; 6HR MAX TEMP:  13;

DUPAGE AIRPORT FAIR      -1  -5  82 SW5       30.52S FOG     WCI -11
6HR MIN TEMP:  -4; 6HR MAX TEMP:   7;

KANKAKEE*      FAIR      -1  -5  82 W8        30.57S WCI -16
WHEELING       FAIR       7   3  84 W3        30.53R
6HR MIN TEMP:   7; 6HR MAX TEMP:  13;

MORRIS*        FAIR      -2  -5  84 W6        30.56R WCI -14
ROMEOVILLE*    FAIR      -1  -4  88 W3        30.55R
NORTHERLY ISL    N/A     10   5  80 W12         N/A  WCI  -4
$$

LMZ740>746-171300-
SOUTHERN LAKE MICHIGAN

STATION/POSITION SKY/WX   TEMP    WIND        PRES    VSBY  WAVE
                          AIR SEA DIR/SP/G                  HT/PER
                          (F)     (DEG/KT/KT) (MB)    (MI)  (FT/S)
HARRISON CRIB              13     280/ 14/ 16   N/A
BURNHAM HARBOR             10     260/  8/ 13   N/A
CALUMET HARBOR              8     230/  5/  8 1032.8S
BURNS HARBOR               10     220/  8/  9 1033.9S
MICHIGAN CITY              19     200/ 11/ 13   N/A
$$

ILZ025>027-034>036-040-047-049-050-058-095>099-171300-
WEST-CENTRAL ILLINOIS

CITY           SKY/WX    TMP DP  RH WIND       PRES   REMARKS
QUINCY         CLOUDY    -2  -5  87 SW5       30.64S WCI -12
GALESBURG*     FAIR      -2  -5  87 W6        30.60S WCI -14
MACOMB*        CLOUDY    -3  -6  86 W6        30.64F WCI -15
JACKSONVILLE*  CLOUDY    -2  -6  83 SW6       30.65S WCI -14
PITTSFIELD*    CLOUDY     1  -3  85 W5        30.65F WCI  -9
$$

ILZ028>032-037-038-041>044-048-051>054-059>061-171300-
CENTRAL ILLINOIS

CITY           SKY/WX    TMP DP  RH WIND       PRES   REMARKS
PONTIAC        FAIR      -1  -3  90 W5        30.59S WCI -11
BLOOMINGTON    FAIR      -1  -5  82 W6        30.57S WCI -13
DECATUR        CLOUDY     1  -1  91 W8        30.61S FOG     WCI -13
PEORIA         FAIR      -2  -6  83 W3        30.61F
6HR MIN TEMP:  -2; 6HR MAX TEMP:   3;

LACON*         FAIR      -1  -5  85 CALM      30.60S
LINCOLN*       FAIR       1  -2  86 W5        30.62S WCI  -8
SPRINGFIELD    FAIR      -2  -6  83 SW7       30.64S WCI -15
6HR MIN TEMP:  -3; 6HR MAX TEMP:   2;

TAYLORVILLE    FAIR      -1  -5  83 W5        30.64S WCI -11
6HR MIN TEMP:  -1; 6HR MAX TEMP:   4;

$$

ILZ033-039-045-046-055>057-062-063-171300-
EAST-CENTRAL ILLINOIS

CITY           SKY/WX    TMP DP  RH WIND       PRES   REMARKS
CHAMPAIGN      FAIR      -4  -8  83 W8        30.59S WCI -19
DANVILLE*      FAIR       0  -4  85 W7        30.55S WCI -13
RANTOUL*       FAIR       0  -4  85 W6        30.58S WCI -12
MATTOON        FAIR       0  -4  83 W9        30.60R WCI -15
PARIS*         FAIR      -3  -6  87 W8        30.61R WCI -18
$$

ILZ079-100>102-171300-
SOUTHWEST ILLINOIS

CITY           SKY/WX    TMP DP  RH WIND       PRES   REMARKS
ALTON          CLOUDY     1  -2  90 W6        30.68S WCI -11
BELLEVILLE     CLEAR      5  -2  74 CALM      30.67S
CAHOKIA*       CLEAR      5  -1  76 W3        30.69S
SPARTA*        PTCLDY     6   2  84 CALM      30.69S
$$

ILZ064>066-069>071-074>076-080>082-084>086-088>090-092>094-171300-
SOUTH-CENTRAL ILLINOIS

CITY           SKY/WX    TMP DP  RH WIND       PRES   REMARKS
CARBONDALE     FAIR       6   3  87 W5        30.69R WCI  -3
6HR MIN TEMP:   6; 6HR MAX TEMP:  11; 6HR PCP: TRACE;

CAIRO*         FLURRIES  10   5  79 N7        30.71R WCI   0
EFFINGHAM*     FAIR       1  -3  85 W5        30.65S WCI  -9
MARION         FAIR       4   3  94 CALM      30.69S
MT. VERNON     FAIR       3  -1  83 VRB3      30.67S
CENTRALIA*     PTCLDY     5   1  84 CALM      30.66S
SALEM*         FAIR       6   0  77 W5        30.66S WCI  -3
METROPOLIS*    FLURRIES  10   5  79 N3        30.70R
$$

ILZ067-068-072-073-078-083-087-091-171300-
SOUTHEAST ILLINOIS

CITY           SKY/WX    TMP DP  RH WIND       PRES   REMARKS
LAWRENCEVILLE  FAIR       3  -1  83 W5        30.65S WCI  -6
FLORA*         FAIR       6   1  76 NW9       30.66S WCI  -7
FAIRFIELD*     FAIR       5   1  82 CALM      30.66S
HARRISBURG*    FAIR       4   2  91 CALM      30.69S
ROBINSON*      FAIR      -2  -5  89 CALM      30.65S
CARMI*         FAIR       5   1  83 W6        30.67R WCI  -6
$$

ABBREVIATIONS USED IN REMARKS
   TC - TEMPERATURE IN CELSIUS
  WCI - WIND CHILL INDEX
   HX - HEAT INDEX
  VSB - VISIBILITY
$$





USA.gov is the U.S. government's official web portal to all federal, state and local government web resources and services.